Meath Environmental Platform

Observations for Trim Market St

Time AQI Temp °C Hum % Pres Pa CO μg/m³ H₂S μg/m³ NO μg/m³ NO₂ μg/m³ O₃ μg/m³ SO₂ μg/m³ PM1 μg/m³ PM2.5 μg/m³ PM10 μg/m³
Monday 17 August 2026
11:44 2 24 60 57,414 0.13 0 1.58 9.51 49.19 0 0 1.5 2.06
11:43 2 23.9 60 57,403 0.06 0 1.53 10.86 60.63 0 0 1.5 2.06
11:41 2 23.6 60 57,405 0 0 3.05 10.4 49.59 0 0 1.5 2.06
11:40 2 23.5 60 57,406 0.01 0 3.14 10.71 52.76 0 0 1.5 2.06
11:39 2 23.4 61 57,404 0.2 0 3.21 12.78 36.21 0 0 1.5 2.75
11:38 2 23.4 61 57,403 0.63 0 3.3 12.61 40.83 0 0 1.5 2.07
11:37 2 23.4 61 57,406 0.05 0 2.69 11.6 41.61 0 0 1.5 2.07
11:36 2 23.4 61 57,412 0 0 2.42 11.07 43.46 0 0 1.5 2.07
11:35 2 23.3 61 57,413 0.02 0 2.41 11.72 43.53 0 0 1.5 2.07
11:34 2 23.3 61 57,420 0.04 0 2.41 10.12 47.99 0 0 1.5 2.07
11:32 2 23.3 61 57,415 0.12 0 2.14 10.94 48.18 0 0 1.99 3.44
11:29 2 23.3 61 57,364 0.27 0 2.21 9.05 36.13 0 0 1.48 2.09
11:24 2 23.2 62 57,288 0.08 0 4.46 11.46 41.78 0 0 1.45 2.13
11:22 2 23.1 62 57,262 0.41 0 5.11 10.08 39.78 0 0 1.44 2.14
11:21 2 23.1 62 57,243 0.26 0 5.13 11.55 39.77 0 0 1.43 2.15
11:15 2 22.8 63 57,029 0 0 1.59 6.52 54.8 0 0 2.38 3.53
11:11 2 22.6 64 56,824 0.09 0 1.21 6.17 49.9 0 0 1.36 2.89
11:10 2 22.5 64 56,777 0.05 0 1.17 7.06 54.25 0 0 1.35 2.23
11:09 2 22.4 64 56,744 0.03 0 1.13 6.95 55.79 0 0 1.35 2.24
11:08 2 22.4 64 56,728 0.03 0 1.28 6.87 54.66 0 0 1.35 2.24